Change the Weather History Date:

Sunday, February 2, 2014

  Actual Average Record
Temperature  
Mean Temperature 4 °F -  
Max Temperature 17 °F 39 °F 55 °F (2015)
Min Temperature -9 °F 12 °F -9 °F (2014)
Degree Days  
Heating Degree Days 61    
Moisture  
Dew Point -2 °F    
Average Humidity 84    
Maximum Humidity 92    
Minimum Humidity 73    
Precipitation  
Precipitation 0.00 in - - ()
Sea Level Pressure  
Sea Level Pressure 30.05 in    
Wind  
Wind Speed 3 mph (SSW)    
Max Wind Speed 9 mph    
Max Gust Speed -    
Visibility 7 miles    
Events Fog , Snow    
Averages and records for this station are not official NWS values.
T = Trace of Precipitation, MM = Missing Value Source: NWS Daily Summary

Daily Weather History Graph

Daily Weather History Graph

Search for Another Location

Airport or City:

Trip Planner

Search our weather history database for the weather conditions in past years. The results will help you decide how hot, cold, wet, or windy it might be!

Date:

Astronomy

Feb. 02, 2014 Rise Set
Actual Time 7:01 AM MST 5:12 PM MST
Civil Twilight 6:32 AM MST 5:41 PM MST
Nautical Twilight 6:00 AM MST 6:13 PM MST
Astronomical Twilight 5:28 AM MST 6:45 PM MST
Moon 8:28 AM MST (2/2) 9:00 PM MST (2/2)
Length of Visible Light 11h 08m
Length of Day
10h 10m
Waxing Crescent, 12% of the Moon is Illuminated
Feb 2
Waxing Crescent
Feb 6
First Quarter
Feb 14
Full
Feb 22
Last Quarter
Mar 1
New

Hourly Weather History & Observations

Time (MST) Temp. Windchill Dew Point Humidity Pressure Visibility Wind Dir Wind Speed Gust Speed Precip Events Conditions
12:10 AM -2.2 °F - -5.8 °F 85% 30.13 in 0.2 mi Calm Calm - N/A Fog Light Freezing Fog
12:30 AM -5.8 °F - -9.4 °F 84% 30.12 in 0.5 mi Calm Calm - N/A Fog Light Freezing Fog
12:50 AM -5.8 °F - -9.4 °F 84% 30.11 in 0.2 mi Calm Calm - N/A Fog Light Freezing Fog
1:10 AM -4.0 °F - -7.6 °F 85% 30.10 in 0.2 mi Calm Calm - N/A Fog Light Freezing Fog
1:30 AM -5.8 °F - -9.4 °F 84% 30.10 in 0.5 mi Calm Calm - N/A Fog Light Freezing Fog
1:50 AM -5.8 °F - -9.4 °F 84% 30.10 in 0.5 mi Calm Calm - N/A Fog Light Freezing Fog
2:10 AM -5.8 °F -14.5 °F -9.4 °F 84% 30.11 in 5.0 mi West 3.5 mph - N/A   Clear
2:30 AM -5.8 °F -14.5 °F -9.4 °F 84% 30.10 in 7.0 mi West 3.5 mph - N/A   Clear
2:50 AM -7.6 °F -18.8 °F -11.2 °F 84% 30.10 in 2.0 mi WSW 4.6 mph - N/A   Clear
3:10 AM -5.8 °F -14.5 °F -9.4 °F 84% 30.09 in 7.0 mi South 3.5 mph - N/A   Clear
3:30 AM -5.8 °F - -9.4 °F 84% 30.09 in 10.0 mi Calm Calm - N/A   Clear
3:50 AM -5.8 °F - -9.4 °F 84% 30.09 in 10.0 mi Calm Calm - N/A   Clear
4:10 AM -5.8 °F - -9.4 °F 84% 30.08 in 10.0 mi Calm Calm - N/A   Clear
4:30 AM -7.6 °F - -11.2 °F 84% 30.08 in 10.0 mi Calm Calm - N/A   Clear
4:50 AM -7.6 °F - -9.4 °F 92% 30.08 in 10.0 mi Calm Calm - N/A   Clear
5:10 AM -5.8 °F - -11.2 °F 77% 30.08 in 10.0 mi Calm Calm - N/A   Clear
5:30 AM -5.8 °F -14.5 °F -9.4 °F 84% 30.08 in 10.0 mi SSW 3.5 mph - N/A   Clear
5:50 AM -9.4 °F - -13.0 °F 84% 30.07 in 10.0 mi Calm Calm - N/A   Clear
6:10 AM -7.6 °F -18.8 °F -13.0 °F 77% 30.07 in 10.0 mi SSW 4.6 mph - N/A   Clear
6:30 AM -7.6 °F -16.5 °F -13.0 °F 77% 30.07 in 10.0 mi South 3.5 mph - N/A   Clear
6:50 AM -9.4 °F -20.9 °F -14.8 °F 77% 30.07 in 10.0 mi SW 4.6 mph - N/A   Clear
7:10 AM -9.4 °F -18.6 °F -14.8 °F 77% 30.08 in 10.0 mi SW 3.5 mph - N/A   Clear
7:30 AM -7.6 °F -18.8 °F -13.0 °F 77% 30.08 in 10.0 mi South 4.6 mph - N/A   Clear
7:50 AM -7.6 °F -16.5 °F -11.2 °F 84% 30.08 in 10.0 mi SSW 3.5 mph - N/A   Clear
8:10 AM -5.8 °F -18.4 °F -9.4 °F 84% 30.09 in 10.0 mi SSW 5.8 mph - N/A   Clear
8:30 AM -4.0 °F -12.4 °F -7.6 °F 85% 30.09 in 10.0 mi South 3.5 mph - N/A   Clear
8:50 AM -2.2 °F -14.2 °F -5.8 °F 85% 30.10 in 10.0 mi South 5.8 mph - N/A   Clear
9:10 AM 1.4 °F -11.3 °F -4.0 °F 78% 30.10 in 10.0 mi SSW 6.9 mph - N/A   Clear
9:30 AM 1.4 °F -12.5 °F -2.2 °F 85% 30.10 in 10.0 mi SSW 8.1 mph - N/A   Clear
9:50 AM 1.4 °F -11.3 °F -0.4 °F 92% 30.10 in 10.0 mi SSW 6.9 mph - N/A   Clear
10:10 AM 3.2 °F -9.1 °F -0.4 °F 85% 30.11 in 10.0 mi SSW 6.9 mph - N/A   Clear
10:30 AM 5.0 °F -5.6 °F 3.2 °F 92% 30.10 in 10.0 mi SW 5.8 mph - N/A   Clear
10:50 AM 6.8 °F -5.9 °F 3.2 °F 85% 30.10 in 10.0 mi SSW 8.1 mph - N/A   Clear
11:10 AM 8.6 °F -2.6 °F 5.0 °F 85% 30.10 in 10.0 mi SSW 6.9 mph - N/A   Clear
11:30 AM 8.6 °F -2.6 °F 5.0 °F 85% 30.08 in 10.0 mi SSW 6.9 mph - N/A   Clear
11:50 AM 10.4 °F -0.4 °F 6.8 °F 85% 30.08 in 10.0 mi SSW 6.9 mph - N/A   Clear
12:10 PM 10.4 °F -0.4 °F 8.6 °F 92% 30.07 in 10.0 mi South 6.9 mph - N/A   Clear
12:30 PM 12.2 °F 4.3 °F 8.6 °F 85% 30.06 in 10.0 mi South 4.6 mph - N/A   Clear
12:50 PM 12.2 °F 0.7 °F 6.8 °F 79% 30.06 in 10.0 mi South 8.1 mph - N/A   Clear
1:10 PM 14.0 °F 3.9 °F 8.6 °F 79% 30.04 in 10.0 mi SSW 6.9 mph - N/A   Clear
1:30 PM 14.0 °F 5.1 °F 8.6 °F 79% 30.04 in 10.0 mi SSW 5.8 mph - N/A   Clear
1:50 PM 15.8 °F 7.2 °F 8.6 °F 73% 30.03 in 10.0 mi SSW 5.8 mph - N/A   Clear
2:10 PM 17.6 °F 10.7 °F 10.4 °F 73% 30.02 in 10.0 mi SSW 4.6 mph - N/A   Clear
2:30 PM 17.6 °F 8.2 °F 10.4 °F 73% 30.02 in 10.0 mi SSW 6.9 mph - N/A   Clear
2:50 PM 17.6 °F 9.3 °F 10.4 °F 73% 30.02 in 10.0 mi SSW 5.8 mph - N/A   Clear
3:10 PM 17.6 °F 10.7 °F 10.4 °F 73% 30.02 in 10.0 mi SSW 4.6 mph - N/A   Clear
3:30 PM 17.6 °F 12.3 °F 10.4 °F 73% 30.02 in 10.0 mi SW 3.5 mph - N/A   Clear
3:50 PM 17.6 °F 12.3 °F 10.4 °F 73% 30.02 in 10.0 mi SSW 3.5 mph - N/A   Clear
4:10 PM 17.6 °F 12.3 °F 10.4 °F 73% 30.02 in 10.0 mi SSW 3.5 mph - N/A   Clear
4:30 PM 17.6 °F 9.3 °F 10.4 °F 73% 30.02 in 10.0 mi SSW 5.8 mph - N/A   Clear
4:50 PM 14.0 °F 6.5 °F 8.6 °F 79% 30.01 in 7.0 mi SSW 4.6 mph - N/A   Clear
5:10 PM 14.0 °F 8.2 °F 10.4 °F 86% 30.01 in 7.0 mi SSW 3.5 mph - N/A   Clear
5:30 PM 8.6 °F -2.6 °F 5.0 °F 85% 30.02 in 7.0 mi SW 6.9 mph - N/A   Clear
5:50 PM 5.0 °F -9.1 °F 3.2 °F 92% 30.02 in 7.0 mi WSW 9.2 mph - N/A   Clear
6:10 PM 5.0 °F -4.1 °F 3.2 °F 92% 30.01 in 7.0 mi WSW 4.6 mph - N/A   Clear
6:30 PM 3.2 °F -10.3 °F 1.4 °F 92% 30.01 in 5.0 mi WSW 8.1 mph - N/A   Clear
6:50 PM 3.2 °F -9.1 °F 1.4 °F 92% 30.01 in 5.0 mi SW 6.9 mph - N/A   Clear
7:10 PM 3.2 °F - 1.4 °F 92% 30.00 in 4.0 mi Calm Calm - N/A   Clear
7:30 PM 1.4 °F -8.3 °F -0.4 °F 92% 30.00 in 4.0 mi WSW 4.6 mph - N/A   Clear
7:50 PM 1.4 °F -8.3 °F -0.4 °F 92% 30.00 in 3.0 mi SSW 4.6 mph - N/A   Clear
8:10 PM 1.4 °F -9.9 °F -2.2 °F 85% 30.01 in 2.5 mi SW 5.8 mph - N/A   Clear
8:30 PM -0.4 °F - -4.0 °F 85% 30.01 in 7.0 mi Calm Calm - N/A   Clear
8:50 PM -0.4 °F -8.3 °F -4.0 °F 85% 30.01 in 4.0 mi SW 3.5 mph - N/A   Clear
9:10 PM -4.0 °F -12.4 °F -5.8 °F 92% 30.01 in 5.0 mi WSW 3.5 mph - N/A   Clear
9:30 PM -4.0 °F -17.8 °F -5.8 °F 92% 30.00 in 2.5 mi South 6.9 mph - N/A   Scattered Clouds
9:50 PM -2.2 °F - -5.8 °F 85% 30.00 in 0.2 mi Calm Calm - N/A Fog Light Freezing Fog
10:10 PM -4.0 °F - -7.6 °F 85% 29.97 in 0.2 mi Calm Calm - N/A Fog Light Freezing Fog
10:30 PM -4.0 °F - -7.6 °F 85% 29.98 in 0.2 mi Calm Calm - N/A Fog Light Freezing Fog
10:50 PM -4.0 °F - -7.6 °F 85% 29.97 in 0.2 mi Calm Calm - N/A Fog Light Freezing Fog
11:10 PM -4.0 °F -12.4 °F -7.6 °F 85% 29.97 in 0.2 mi SW 3.5 mph - N/A Fog Light Freezing Fog
11:30 PM -4.0 °F -12.4 °F -5.8 °F 92% 29.96 in 0.2 mi West 3.5 mph - N/A Fog Light Freezing Fog
11:50 PM -4.0 °F - -7.6 °F 85% 29.96 in 1.0 mi Calm Calm - N/A Snow Light Snow